[[{"header":{"parameterUnit":"m.s-1","parameterCategory":2,"la1":30.2991,"la2":30.254,"lo1":-89.0895,"lo2":-89.0444,"dy":0.0017,"dx":0.0017,"nx":28,"ny":28,"refTime":"2025-02-10T09:00:00:Z","depth":"0","parameterNumber":2,"parameterNumberName":"U-component_of_CURRENTS"},"data":[0,0,0,0,0,0,0,0,0,0,0,0,0,0,0,0,0,0,0,0,0,0,0,0,0,0,0,0,0,0,0,0,0,0,0,0,0,0,0,0,0,0,0,0,0,0,0,0,0,0,0,0,0,0,0,0,0,0,0.1815,0.1816,0,0.188,0.1881,0.1881,0.1894,0.1893,0.1893,0.1892,0.1897,0.1898,0.1898,0,0,0,0,0,0,0,0,0,0,0,0,0,0.1742,0.1743,0.1815,0.1816,0.1817,0.188,0.1881,0.1882,0.1894,0.1893,0.1893,0.1892,0.1897,0.1898,0.1898,0,0,0,0,0,0,0,0,0,0,0,0,0,0.1787,0.1744,0.1815,0.183,0.1832,0.188,0.1881,0.1882,0.1894,0.1893,0.1893,0.1892,0.1897,0.1898,0.1899,0.192,0,0,0.1901,0.1902,0,0,0,0,0,0,0,0,0.1785,0.179,0.1827,0.183,0.1832,0.1878,0.1857,0.1892,0.1894,0.1871,0.1892,0.1891,0.1886,0.1887,0.1903,0.192,0.1921,0.1902,0.1902,0.1902,0.1903,0,0,0,0,0,0,0,0.1781,0.1787,0.1841,0.1828,0.1831,0.1848,0.1853,0.1864,0.1881,0.1873,0.1874,0.1881,0.1886,0.1902,0.1903,0.1921,0.1901,0.1902,0.1903,0.1903,0.197,0.1972,0,0,0,0,0,0,0.1772,0.1785,0.1839,0.1843,0.1806,0.1849,0.1855,0.1864,0.1882,0.1885,0.1882,0.1881,0.19,0.1901,0.1903,0.1941,0.1902,0.1903,0.1904,0.1969,0.1971,0.1972,0,0,0,0,0,0,0.177,0.1776,0.1836,0.1815,0.1823,0.1851,0.1861,0.1866,0.1883,0.1889,0.1891,0.1894,0.19,0.1901,0.1916,0.194,0.1904,0.1905,0.1968,0.197,0.1971,0.2009,0,0,0,0,0,0,0.1768,0.1775,0.178,0.1814,0.1824,0.1867,0.1862,0.1868,0.1888,0.1889,0.19,0.19,0.1899,0.1914,0.1917,0.1941,0.1905,0.1966,0.1969,0.1971,0.2006,0.2012,0.2017,0,0,0,0,0,0.1765,0.1775,0.178,0.1787,0.183,0.1867,0.1875,0.1891,0.1889,0.1903,0.1908,0.19,0.1931,0.1916,0.1918,0.1943,0.1965,0.1968,0.1971,0.2004,0.2011,0.2017,0,0,0,0,0,0,0.1747,0.1778,0.1785,0.1803,0.1833,0.1869,0.1884,0.1896,0.1914,0.1912,0.1912,0.1913,0.1939,0.1936,0.1919,0.1971,0.1948,0.1952,0.1973,0.1979,0.1985,0.1993,0.1906,0,0,0,0,0,0.1745,0.176,0.1794,0.181,0.1825,0.1856,0.1873,0.1888,0.1908,0.1916,0.1922,0.1933,0.1954,0.196,0.1975,0.1998,0.202,0.2017,0.2023,0.2027,0.2037,0.2097,0.2109,0.1981,0.1981,0.1981,0,0,0.1742,0.1762,0.177,0.1807,0.1832,0.1861,0.1865,0.1896,0.192,0.1912,0.1941,0.1952,0.1965,0.1996,0.2007,0.1993,0.2076,0.2031,0.2034,0.2041,0.2101,0.2114,0.2125,0.1983,0.1983,0.1982,0,0,0.1747,0.1764,0.1778,0.1807,0.1845,0.1868,0.1877,0.1915,0.1931,0.1961,0.1967,0.1993,0.2012,0.2037,0.2049,0.2093,0.2104,0.2095,0.2127,0.2186,0.2197,0.2207,0.2253,0.2267,0.2095,0.2095,0.2095,0,0.1739,0.1766,0.1789,0.1817,0.1842,0.187,0.1899,0.1926,0.1962,0.1986,0.197,0.2035,0.2038,0.2096,0.2108,0.2106,0.2136,0.2099,0.2193,0.2204,0.2213,0.2258,0.2273,0.2098,0.2097,0.2097,0.2097,0,0.1759,0.1784,0.1799,0.184,0.1871,0.1902,0.1943,0.1971,0.1989,0.202,0.2076,0.209,0.2131,0.2138,0.2132,0.2208,0.2206,0.2195,0.2177,0.2229,0.2272,0.2287,0.2101,0.21,0.2099,0.2099,0,0,0.1732,0.1798,0.1803,0.1829,0.1888,0.1914,0.1962,0.2019,0.2058,0.2092,0.215,0.2186,0.2203,0.2219,0.2227,0.2269,0.2356,0.226,0.2262,0.2305,0.2487,0.2503,0.2521,0.2364,0.2367,0.2369,0.2491,0,0.174,0.1787,0.1823,0.1873,0.1903,0.1951,0.1995,0.2051,0.2095,0.2156,0.2199,0.2252,0.2234,0.2257,0.2302,0.2347,0.2397,0.2324,0.2431,0.2434,0.2442,0.2539,0.2529,0.2639,0.2505,0.2508,0.251,0,0.1745,0.1779,0.1822,0.1895,0.1913,0.1944,0.2024,0.2071,0.2167,0.2206,0.2275,0.2312,0.2393,0.2359,0.2478,0.2434,0.2468,0.2493,0.2499,0.2512,0.2479,0.2565,0.267,0.2617,0.2532,0.2531,0.2529,0,0.1709,0.1779,0.1809,0.1835,0.1917,0.1945,0.1991,0.2081,0.2135,0.2243,0.2299,0.2394,0.2448,0.2515,0.257,0.2536,0.2696,0.2654,0.2702,0.2703,0.2715,0.2712,0.2782,0.2745,0.2745,0.2745,0.2744,0,0.1701,0.1728,0.1791,0.1809,0.1852,0.1921,0.1981,0.2046,0.2153,0.223,0.232,0.2402,0.2491,0.2587,0.262,0.2725,0.2745,0.274,0.2752,0.2727,0.2724,0.2692,0.2647,0.2749,0.2748,0.2747,0.2746,0,0.1655,0.1698,0.1735,0.1811,0.1832,0.1861,0.1961,0.2015,0.2123,0.2229,0.2271,0.2434,0.2577,0.2664,0.2784,0.2797,0.2825,0.2904,0.2865,0.287,0.2851,0.2807,0.2757,0.2664,0.2991,0.2992,0.2993,0,0.1634,0.1646,0.1711,0.1731,0.176,0.1815,0.1858,0.1976,0.2046,0.2246,0.2302,0.2484,0.2628,0.2834,0.2907,0.3015,0.2888,0.3028,0.2959,0.2884,0.2844,0.2669,0.258,0.2989,0.299,0.2991,0.2992,0,0.1593,0.1611,0.1642,0.1678,0.1713,0.1766,0.1842,0.1895,0.2048,0.217,0.236,0.2503,0.2739,0.2885,0.3023,0.3071,0.2909,0.3048,0.2993,0.2884,0.2677,0.2582,0.2857,0.2999,0.2999,0.2998,0.2998,0.2997,0.1552,0.1559,0.1594,0.1628,0.1668,0.1716,0.1745,0.1857,0.1981,0.216,0.233,0.2535,0.2801,0.3034,0.3043,0.3081,0.2972,0.304,0.3006,0.2843,0.2715,0.3004,0.3138,0.3138,0.3138,0.3138,0.3138,0,0.1504,0.1523,0.1549,0.1587,0.1608,0.1651,0.1735,0.1772,0.1895,0.2106,0.2286,0.2605,0.2812,0.297,0.3132,0.3063,0.2873,0.2991,0.2755,0.2675,0.2992,0.2955,0.3028,0.3028,0.3028,0.3028,0.3028,0.3028,0.148,0.1484,0.1503,0.1518,0.1544,0.1562,0.1596,0.1675,0.1809,0.2034,0.2227,0.2415,0.2791,0.3091,0.3119,0.3038,0.2758,0.2688,0.2578,0.2845,0.2845,0.2846,0.2801,0.284,0.284,0.2176,0.2171,0.2168]},{"header":{"parameterUnit":"m.s-1","parameterCategory":2,"la1":30.2991,"la2":30.254,"lo1":-89.0895,"lo2":-89.0444,"dy":0.0017,"dx":0.0017,"nx":28,"ny":28,"refTime":"2025-02-10T09:00:00:Z","depth":"0","parameterNumber":3,"parameterNumberName":"V-component_of_CURRENTS"},"data":[0,0,0,0,0,0,0,0,0,0,0,0,0,0,0,0,0,0,0,0,0,0,0,0,0,0,0,0,0,0,0,0,0,0,0,0,0,0,0,0,0,0,0,0,0,0,0,0,0,0,0,0,0,0,0,0,0,0,0.0028,0.0028,0,0.0006,0.0006,0.0006,-0.0034,-0.0035,-0.0036,-0.0037,-0.0076,-0.0077,-0.0077,0,0,0,0,0,0,0,0,0,0,0,0,0,0.0078,0.0077,0.0028,0.0028,0.0027,0.0006,0.0006,0.0006,-0.0034,-0.0035,-0.0036,-0.0037,-0.0076,-0.0077,-0.0077,0,0,0,0,0,0,0,0,0,0,0,0,0,0.0058,0.0077,0.0029,0.0004,0.0001,0.0006,0.0006,0.0005,-0.0034,-0.0035,-0.0036,-0.0038,-0.0076,-0.0077,-0.0077,-0.005,0,0,-0.0078,-0.0078,0,0,0,0,0,0,0,0,0.0059,0.0057,0.0008,0.0005,0.0002,-0.0015,0.0008,-0.0015,-0.0033,-0.0018,-0.0037,-0.0038,-0.0058,-0.006,-0.0057,-0.0051,-0.0053,-0.0078,-0.0078,-0.0078,-0.0078,0,0,0,0,0,0,0,0.0061,0.0058,0.0022,0.0007,0.0004,0.0007,0.0003,0.0004,-0.0028,-0.0019,-0.0023,-0.0029,-0.0059,-0.0057,-0.0059,-0.0054,-0.0078,-0.0078,-0.0078,-0.0078,-0.0066,-0.0065,0,0,0,0,0,0,0.0058,0.0059,0.0022,0.0021,0.0025,0.0007,0.0002,-0.0006,-0.0028,-0.0033,-0.0027,-0.0031,-0.0056,-0.0058,-0.006,-0.0047,-0.0078,-0.0078,-0.0078,-0.0066,-0.0066,-0.0065,0,0,0,0,0,0,0.0059,0.0055,0.0023,0.0038,0.0033,0.0007,-0.0001,-0.0006,-0.0006,-0.0034,-0.004,-0.0024,-0.0057,-0.006,-0.006,-0.0048,-0.0078,-0.0078,-0.0067,-0.0066,-0.0065,-0.001,0,0,0,0,0,0,0.0061,0.0056,0.0056,0.0037,0.0032,0.0035,-0.0,-0.0005,-0.0008,-0.0012,-0.0032,-0.0038,-0.0058,-0.006,-0.006,-0.0049,-0.0079,-0.0067,-0.0066,-0.0066,-0.0012,-0.0007,-0.0003,0,0,0,0,0,0.0063,0.0067,0.0056,0.0052,0.0031,0.0035,0.0035,0.0012,-0.0006,0.0005,-0.0017,-0.0037,-0.0055,-0.0059,-0.006,-0.0049,-0.0068,-0.0067,-0.0066,-0.0014,-0.0008,-0.0003,0,0,0,0,0,0,0.0093,0.0063,0.005,0.0046,0.0044,0.0028,0.0033,0.0021,0.0014,0.0006,-0.0023,-0.0029,-0.0029,-0.0043,-0.0046,-0.0044,-0.0067,-0.0066,-0.0028,-0.0022,-0.0018,-0.0015,-0.0079,0,0,0,0,0,0.0099,0.0092,0.0073,0.0074,0.0072,0.0056,0.0056,0.0043,0.0031,0.0026,0.0014,-0.0006,-0.0022,-0.0026,-0.0038,-0.0025,-0.006,-0.0023,-0.0018,-0.0014,-0.0013,-0.0061,-0.0061,-0.0062,-0.0062,-0.0062,0,0,0.0111,0.0094,0.0091,0.008,0.0074,0.0088,0.0053,0.0057,0.0067,0.0025,0.0039,0.0013,-0.0016,-0.0013,-0.0014,-0.0023,-0.003,-0.0012,-0.0009,-0.001,-0.006,-0.006,-0.006,-0.0061,-0.0061,-0.0061,0,0,0.0138,0.0118,0.0124,0.0128,0.0121,0.0113,0.0117,0.0109,0.0102,0.0115,0.0075,0.0055,0.0054,0.0025,0.001,0.0036,-0.0006,0.0035,0.0065,0.0019,0.0018,0.0017,-0.0018,-0.0023,0.004,0.004,0.004,0,0.0156,0.0157,0.0132,0.0147,0.0155,0.0129,0.0152,0.0149,0.0144,0.0137,0.0126,0.0091,0.0069,0.0048,0.0054,0.0046,0.0016,0.0048,0.0025,0.0023,0.0021,-0.0016,-0.0022,0.0043,0.0042,0.0042,0.0042,0,0.0189,0.0197,0.0205,0.0211,0.022,0.0237,0.0227,0.0233,0.0221,0.0208,0.0191,0.0155,0.0127,0.0119,0.0097,0.0073,0.0054,0.0034,0.0011,0.0024,-0.0015,-0.0022,0.0047,0.0046,0.0045,0.0044,0,0,0.0214,0.0224,0.023,0.0246,0.0255,0.0266,0.0283,0.0285,0.0286,0.0271,0.0267,0.0231,0.0195,0.0175,0.0137,0.0101,0.0064,0.0069,0.0065,0.0035,-0.0032,-0.0038,-0.0047,0.0037,0.0036,0.0035,-0.0051,0,0.0251,0.0286,0.0283,0.0331,0.0352,0.0342,0.0361,0.0357,0.0344,0.0336,0.0278,0.0262,0.0221,0.0205,0.0161,0.0088,0.0047,0.009,-0.0042,-0.0046,-0.0052,-0.0055,-0.0031,-0.0106,-0.0059,-0.006,-0.0061,0,0.0287,0.0305,0.0349,0.0383,0.0391,0.0415,0.0428,0.0443,0.0416,0.0401,0.0361,0.032,0.0263,0.0227,0.0105,0.0134,0.0056,-0.0002,-0.0008,-0.0039,-0.0065,-0.0114,-0.0121,-0.0289,-0.0072,-0.0071,-0.007,0,0.0312,0.0355,0.0388,0.0403,0.0434,0.0449,0.0464,0.0457,0.0474,0.0436,0.0437,0.0355,0.0325,0.0214,0.0103,0.0098,-0.0032,-0.0058,-0.014,-0.0141,-0.016,-0.0161,-0.0345,-0.0154,-0.0154,-0.0153,-0.0153,0,0.035,0.0382,0.04,0.0422,0.0468,0.0477,0.0513,0.0512,0.0517,0.0543,0.0468,0.0474,0.032,0.0237,0.0116,-0.0025,-0.0028,-0.0138,-0.0167,-0.0138,-0.0136,-0.0314,-0.0398,-0.0157,-0.0156,-0.0155,-0.0155,0,0.0379,0.0388,0.0432,0.0465,0.048,0.0512,0.0563,0.0591,0.0582,0.0613,0.0609,0.0556,0.0455,0.0299,0.0126,0.0005,-0.0229,-0.019,-0.0138,-0.0159,-0.0392,-0.0471,-0.0681,-0.075,-0.0303,-0.0303,-0.0304,0,0.0396,0.0417,0.0462,0.0493,0.0512,0.0557,0.0597,0.0618,0.0662,0.0678,0.0708,0.063,0.0614,0.0358,0.0121,-0.0103,-0.0252,-0.0244,-0.0255,-0.0408,-0.0518,-0.0581,-0.0628,-0.0259,-0.0259,-0.0259,-0.0259,0,0.0435,0.0442,0.0478,0.0537,0.0585,0.0647,0.0709,0.0763,0.0798,0.0846,0.0909,0.0904,0.0662,0.0466,0.0141,-0.0024,-0.0355,-0.0254,-0.0435,-0.0519,-0.0578,-0.0655,-0.0196,-0.026,-0.026,-0.026,-0.026,-0.026,0.0464,0.0495,0.0534,0.0596,0.0654,0.0746,0.0828,0.0915,0.1024,0.1141,0.1094,0.1146,0.0803,0.0383,0.0108,-0.0373,-0.0381,-0.0511,-0.0599,-0.0653,-0.0711,-0.0247,-0.0328,-0.0328,-0.0328,-0.0329,-0.0329,0,0.0507,0.054,0.0596,0.0677,0.0757,0.0779,0.0916,0.1029,0.1201,0.1308,0.1387,0.1279,0.0854,0.0396,-0.0255,-0.0633,-0.0773,-0.0851,-0.0948,-0.0983,-0.0594,-0.0582,-0.0693,-0.0693,-0.0693,-0.0693,-0.0692,-0.0692,0.0533,0.0592,0.0621,0.0754,0.0822,0.0973,0.1073,0.1254,0.1387,0.1581,0.165,0.1654,0.1317,0.0082,-0.0747,-0.0955,-0.1238,-0.1315,-0.1452,-0.1201,-0.1176,-0.1152,-0.1164,-0.1395,-0.1396,-0.1787,-0.1792,-0.1795]}],[{"header":{"parameterUnit":"m.s-1","parameterCategory":2,"la1":30.2991,"la2":30.254,"lo1":-89.0895,"lo2":-89.0444,"dy":0.0017,"dx":0.0017,"nx":28,"ny":28,"refTime":"2025-02-10T09:00:00:Z","depth":"2","parameterNumber":2,"parameterNumberName":"U-component_of_CURRENTS"},"data":[0,0,0,0,0,0,0,0,0,0,0,0,0,0,0,0,0,0,0,0,0,0,0,0,0,0,0,0,0,0,0,0,0,0,0,0,0,0,0,0,0,0,0,0,0,0,0,0,0,0,0,0,0,0,0,0,0,0,0.1734,0.1735,0,0.1826,0.1828,0.1829,0.1845,0.1844,0.1844,0.1843,0.1894,0.1896,0.1898,0,0,0,0,0,0,0,0,0,0,0,0,0,0.1654,0.1655,0.1734,0.1735,0.1736,0.1826,0.1828,0.1829,0.1846,0.1844,0.1843,0.1842,0.1893,0.1896,0.1899,0,0,0,0,0,0,0,0,0,0,0,0,0,0.1713,0.1655,0.1733,0.1754,0.1756,0.1826,0.1828,0.1829,0.1846,0.1844,0.1843,0.1842,0.1892,0.1896,0.1899,0.1947,0,0,0.1909,0.1911,0,0,0,0,0,0,0,0,0.1709,0.1716,0.175,0.1752,0.1755,0.1821,0.1818,0.1866,0.1846,0.1814,0.1843,0.1841,0.1866,0.1871,0.1895,0.1949,0.1952,0.1909,0.1911,0.1913,0.1914,0,0,0,0,0,0,0,0.1705,0.1713,0.1772,0.1751,0.1754,0.1786,0.1793,0.1828,0.1847,0.1816,0.1817,0.1825,0.1867,0.1892,0.1896,0.1952,0.1909,0.1912,0.1914,0.1916,0.2037,0.2038,0,0,0,0,0,0,0.1688,0.1708,0.1769,0.1775,0.1727,0.1788,0.1796,0.1803,0.1847,0.1853,0.1827,0.1826,0.1887,0.1892,0.1898,0.1955,0.1913,0.1916,0.1918,0.2036,0.2037,0.2039,0,0,0,0,0,0,0.1686,0.1692,0.1765,0.1742,0.1753,0.179,0.1799,0.1805,0.1832,0.1855,0.186,0.1846,0.1886,0.1893,0.193,0.1957,0.1917,0.192,0.2034,0.2036,0.2038,0.207,0,0,0,0,0,0,0.1683,0.1691,0.1698,0.1741,0.1754,0.1807,0.1801,0.1808,0.1838,0.1838,0.1874,0.1877,0.1885,0.1925,0.1933,0.196,0.1923,0.2033,0.2035,0.2037,0.2068,0.2073,0.2078,0,0,0,0,0,0.168,0.1691,0.1698,0.1706,0.176,0.1808,0.1818,0.1841,0.184,0.1859,0.1879,0.1876,0.1945,0.1929,0.1938,0.1967,0.2032,0.2035,0.2037,0.2065,0.2072,0.2077,0,0,0,0,0,0,0.1662,0.1695,0.1703,0.1724,0.1763,0.181,0.1829,0.1848,0.1883,0.1881,0.1897,0.1903,0.1945,0.1954,0.1935,0.2008,0.1987,0.1992,0.2005,0.2011,0.2016,0.202,0.1926,0,0,0,0,0,0.1661,0.1676,0.1716,0.1736,0.1752,0.1794,0.1818,0.1838,0.187,0.1885,0.1912,0.1938,0.1968,0.1985,0.2013,0.2058,0.207,0.2081,0.2086,0.209,0.2099,0.2142,0.2152,0.2048,0.2048,0.2048,0,0,0.1659,0.168,0.1689,0.1733,0.1763,0.1804,0.1806,0.1845,0.1883,0.1886,0.1943,0.196,0.1984,0.203,0.205,0.2038,0.2125,0.2094,0.2097,0.2104,0.2146,0.2156,0.2165,0.205,0.2049,0.2049,0,0,0.1666,0.1683,0.1699,0.1735,0.178,0.1813,0.1824,0.1879,0.1904,0.196,0.1969,0.2002,0.2054,0.2078,0.2094,0.2147,0.215,0.2153,0.2184,0.2225,0.2234,0.2242,0.2264,0.2274,0.2155,0.2155,0.2155,0,0.1661,0.1689,0.1714,0.1746,0.1778,0.1817,0.1853,0.1896,0.1959,0.1984,0.1977,0.2066,0.208,0.214,0.2152,0.216,0.2175,0.2157,0.2232,0.224,0.2248,0.2268,0.2278,0.2157,0.2157,0.2156,0.2156,0,0.1686,0.1713,0.1728,0.1781,0.1822,0.1859,0.1916,0.1959,0.1991,0.2031,0.2097,0.2127,0.2175,0.2186,0.2184,0.225,0.224,0.2232,0.2215,0.226,0.2279,0.2289,0.216,0.2159,0.2158,0.2158,0,0,0.1658,0.1728,0.1735,0.1761,0.1841,0.1874,0.1943,0.2011,0.205,0.2113,0.2167,0.2225,0.2241,0.226,0.2272,0.2305,0.2363,0.2291,0.2292,0.2309,0.2446,0.246,0.2472,0.2369,0.2371,0.2372,0.2435,0,0.1669,0.1719,0.1763,0.1825,0.1856,0.1918,0.198,0.2048,0.21,0.2163,0.2212,0.2265,0.2271,0.2288,0.2331,0.2355,0.2392,0.2346,0.2403,0.2404,0.241,0.2486,0.2321,0.2365,0.2444,0.2446,0.2447,0,0.1678,0.1711,0.1762,0.1839,0.1859,0.1905,0.1994,0.2056,0.2153,0.2192,0.2264,0.2302,0.2377,0.236,0.2455,0.2425,0.2444,0.2457,0.246,0.2472,0.2439,0.2335,0.2381,0.2464,0.2463,0.2461,0.246,0,0.1637,0.1711,0.1745,0.1775,0.187,0.1902,0.1959,0.2058,0.2112,0.2208,0.2252,0.2348,0.2397,0.2451,0.2506,0.2479,0.2596,0.2559,0.2593,0.2593,0.2464,0.245,0.2627,0.2627,0.2626,0.2626,0.2626,0,0.1631,0.1658,0.1722,0.1744,0.1789,0.187,0.1929,0.2,0.2102,0.2173,0.2261,0.2337,0.2423,0.2505,0.2532,0.2616,0.2629,0.2623,0.2626,0.2471,0.2458,0.2548,0.2538,0.2629,0.2628,0.2628,0.2627,0,0.1586,0.163,0.1667,0.1747,0.1769,0.1802,0.1904,0.1952,0.2055,0.2149,0.2184,0.234,0.2462,0.2547,0.2639,0.2656,0.2717,0.2735,0.2547,0.2528,0.2669,0.266,0.2775,0.2776,0.2777,0.2778,0.2779,0,0.1567,0.1579,0.1645,0.1664,0.1697,0.1752,0.1798,0.1911,0.1973,0.2156,0.2204,0.2362,0.2488,0.2652,0.2707,0.2785,0.278,0.2648,0.2578,0.2702,0.2692,0.2681,0.2671,0.2405,0.2402,0.2401,0.2399,0,0.1528,0.1548,0.1579,0.1614,0.165,0.1696,0.1772,0.1814,0.1961,0.2064,0.223,0.2349,0.2541,0.2585,0.2693,0.2702,0.2626,0.2615,0.2803,0.2409,0.2363,0.2351,0.2351,0.2382,0.2384,0.2385,0.2386,0.2387,0.1491,0.1497,0.1533,0.1566,0.1604,0.1644,0.1666,0.1765,0.1869,0.2019,0.2173,0.2304,0.2408,0.2524,0.2492,0.2467,0.2634,0.2512,0.2513,0.2517,0.248,0.2441,0.2465,0.2467,0.2469,0.2471,0.2472,0,0.1442,0.1462,0.1488,0.1523,0.1538,0.1584,0.1653,0.1675,0.1772,0.1939,0.2083,0.205,0.2142,0.2214,0.2183,0.2228,0.2146,0.212,0.1985,0.2009,0.2028,0.1959,0.1809,0.1806,0.1803,0.18,0,0,0.1418,0.1422,0.1439,0.1448,0.1474,0.1482,0.1508,0.1559,0.1657,0.1748,0.1827,0.2054,0.219,0.1956,0.1967,0.1873,0.1901,0.1807,0.2359,0.2226,0.224,0.2303,0.2232,0,0,0,0,0]},{"header":{"parameterUnit":"m.s-1","parameterCategory":2,"la1":30.2991,"la2":30.254,"lo1":-89.0895,"lo2":-89.0444,"dy":0.0017,"dx":0.0017,"nx":28,"ny":28,"refTime":"2025-02-10T09:00:00:Z","depth":"2","parameterNumber":3,"parameterNumberName":"V-component_of_CURRENTS"},"data":[0,0,0,0,0,0,0,0,0,0,0,0,0,0,0,0,0,0,0,0,0,0,0,0,0,0,0,0,0,0,0,0,0,0,0,0,0,0,0,0,0,0,0,0,0,0,0,0,0,0,0,0,0,0,0,0,0,0,-0.0197,-0.0198,0,-0.0254,-0.0254,-0.0255,-0.03,-0.03,-0.0301,-0.0301,-0.0372,-0.0374,-0.0375,0,0,0,0,0,0,0,0,0,0,0,0,0,-0.0144,-0.0145,-0.0197,-0.0198,-0.0199,-0.0253,-0.0254,-0.0255,-0.03,-0.03,-0.0301,-0.0302,-0.0372,-0.0373,-0.0375,0,0,0,0,0,0,0,0,0,0,0,0,0,-0.018,-0.0145,-0.0197,-0.0228,-0.0232,-0.0253,-0.0254,-0.0255,-0.03,-0.03,-0.0301,-0.0302,-0.0371,-0.0373,-0.0375,-0.0373,0,0,-0.0382,-0.0383,0,0,0,0,0,0,0,0,-0.0178,-0.0181,-0.0223,-0.0226,-0.023,-0.0271,-0.0262,-0.0295,-0.0299,-0.0273,-0.0301,-0.0302,-0.034,-0.0344,-0.0352,-0.0376,-0.0379,-0.0382,-0.0383,-0.0384,-0.0385,0,0,0,0,0,0,0,-0.0175,-0.0179,-0.0219,-0.0224,-0.0228,-0.0245,-0.0251,-0.0268,-0.0301,-0.0275,-0.0279,-0.0286,-0.0342,-0.035,-0.0354,-0.038,-0.0382,-0.0384,-0.0385,-0.0386,-0.0398,-0.0397,0,0,0,0,0,0,-0.0168,-0.0177,-0.0217,-0.022,-0.0206,-0.0245,-0.0252,-0.0256,-0.03,-0.0308,-0.0285,-0.0288,-0.0346,-0.0351,-0.0357,-0.0347,-0.0384,-0.0386,-0.0387,-0.0399,-0.0397,-0.0396,0,0,0,0,0,0,-0.0167,-0.0171,-0.0215,-0.0201,-0.0208,-0.0245,-0.025,-0.0257,-0.0263,-0.0308,-0.0316,-0.0285,-0.0347,-0.0354,-0.0374,-0.035,-0.0387,-0.0389,-0.04,-0.0398,-0.0397,-0.0333,0,0,0,0,0,0,-0.0165,-0.017,-0.0167,-0.02,-0.0208,-0.0222,-0.025,-0.0258,-0.0267,-0.0271,-0.031,-0.0318,-0.0348,-0.037,-0.0376,-0.0354,-0.0391,-0.0401,-0.0399,-0.0397,-0.0336,-0.0329,-0.0324,0,0,0,0,0,-0.0163,-0.0156,-0.0167,-0.0172,-0.0204,-0.0221,-0.0226,-0.0256,-0.0266,-0.0264,-0.0295,-0.0316,-0.0363,-0.0372,-0.0378,-0.0356,-0.0402,-0.04,-0.0398,-0.0339,-0.0331,-0.0324,0,0,0,0,0,0,-0.013,-0.0161,-0.0173,-0.0176,-0.0194,-0.0229,-0.0231,-0.0247,-0.0268,-0.0273,-0.0312,-0.0322,-0.033,-0.035,-0.0359,-0.0353,-0.0382,-0.0381,-0.0335,-0.0328,-0.0321,-0.0309,-0.0392,0,0,0,0,0,-0.0121,-0.0125,-0.0156,-0.0156,-0.0164,-0.0194,-0.0203,-0.0221,-0.0246,-0.0256,-0.0277,-0.0302,-0.0325,-0.0333,-0.0356,-0.0353,-0.0386,-0.034,-0.0334,-0.0328,-0.0322,-0.0367,-0.0365,-0.0389,-0.0389,-0.039,0,0,-0.0109,-0.0126,-0.0128,-0.0149,-0.0167,-0.0164,-0.0201,-0.0211,-0.0203,-0.026,-0.025,-0.0283,-0.0321,-0.0324,-0.0327,-0.0338,-0.0335,-0.0326,-0.0321,-0.0317,-0.0365,-0.0363,-0.0361,-0.0388,-0.0388,-0.0389,0,0,-0.0084,-0.01,-0.0095,-0.0105,-0.0127,-0.0141,-0.0138,-0.0162,-0.0169,-0.0169,-0.021,-0.023,-0.0249,-0.0275,-0.0292,-0.0262,-0.0305,-0.0261,-0.0215,-0.0259,-0.0258,-0.0257,-0.0284,-0.0286,-0.0253,-0.0253,-0.0253,0,-0.0065,-0.0064,-0.0094,-0.0088,-0.0089,-0.0123,-0.0109,-0.0118,-0.014,-0.0144,-0.0156,-0.0194,-0.0225,-0.0242,-0.0231,-0.0247,-0.0277,-0.0242,-0.0252,-0.0252,-0.0253,-0.0281,-0.0284,-0.0249,-0.025,-0.025,-0.025,0,-0.0038,-0.0033,-0.0029,-0.003,-0.0032,-0.0028,-0.0044,-0.0041,-0.0049,-0.0062,-0.0074,-0.012,-0.0144,-0.0151,-0.0182,-0.0193,-0.0214,-0.0245,-0.0273,-0.0246,-0.0277,-0.0282,-0.0245,-0.0246,-0.0247,-0.0248,0,0,-0.0004,-0.0009,-0.0006,0.0006,-0.0002,0.0002,0.0016,0.0015,0.0026,0.0008,0.0013,-0.0023,-0.0052,-0.0073,-0.0115,-0.0146,-0.017,-0.0187,-0.0191,-0.0215,-0.0258,-0.026,-0.0265,-0.0209,-0.021,-0.0211,-0.0275,0,0.0028,0.0054,0.0042,0.008,0.0094,0.0075,0.0094,0.009,0.008,0.008,0.003,0.0019,-0.0021,-0.0035,-0.0072,-0.015,-0.0181,-0.0149,-0.0279,-0.0282,-0.0289,-0.0271,-0.0242,-0.0297,-0.028,-0.0281,-0.0281,0,0.006,0.0075,0.011,0.0135,0.014,0.0159,0.0177,0.0189,0.017,0.0158,0.013,0.0091,0.0048,0.0006,-0.0103,-0.0083,-0.0159,-0.0219,-0.0224,-0.0252,-0.0292,-0.0323,-0.0307,-0.029,-0.0289,-0.0289,-0.0288,0,0.0099,0.0126,0.0159,0.0166,0.0186,0.0202,0.0215,0.0213,0.0233,0.0203,0.021,0.0142,0.0119,0.0012,-0.0094,-0.0107,-0.0217,-0.0258,-0.033,-0.0331,-0.0344,-0.0345,-0.0339,-0.0339,-0.0339,-0.0339,-0.0338,0,0.0138,0.0167,0.018,0.0198,0.0248,0.0245,0.0288,0.0286,0.0293,0.0327,0.0254,0.0266,0.0119,0.0046,-0.0074,-0.0201,-0.0204,-0.0315,-0.0348,-0.0318,-0.0316,-0.0343,-0.0343,-0.0341,-0.0341,-0.034,-0.034,0,0.0175,0.018,0.0222,0.025,0.0266,0.0301,0.0346,0.0379,0.0371,0.0409,0.0407,0.0359,0.0267,0.0121,-0.0045,-0.0159,-0.0296,-0.0343,-0.0285,-0.0309,-0.0388,-0.0384,-0.044,-0.044,-0.0441,-0.0441,-0.0442,0,0.0196,0.0218,0.0263,0.0296,0.0311,0.0358,0.04,0.0416,0.0459,0.048,0.0512,0.0444,0.0426,0.019,-0.0033,-0.0245,-0.0279,-0.0366,-0.0392,-0.0372,-0.0399,-0.0393,-0.0388,-0.0383,-0.0383,-0.0383,-0.0382,0,0.0238,0.0249,0.0284,0.0348,0.0398,0.0459,0.052,0.0572,0.0603,0.0646,0.0703,0.0693,0.0475,0.0282,-0.0016,-0.0164,-0.0333,-0.0371,-0.0375,-0.0355,-0.0323,-0.0347,-0.0344,-0.0381,-0.0381,-0.0381,-0.0382,-0.0382,0.0271,0.0303,0.0346,0.0411,0.0474,0.0564,0.0635,0.0714,0.081,0.0903,0.0865,0.0868,0.0607,0.0259,-0.002,-0.0317,-0.0313,-0.0417,-0.0416,-0.0415,-0.0391,-0.0361,-0.0421,-0.0421,-0.0421,-0.0422,-0.0422,0,0.0312,0.0349,0.0409,0.0492,0.0573,0.0598,0.0722,0.0808,0.0951,0.1033,0.1087,0.0874,0.0637,0.0335,-0.0101,-0.0369,-0.0395,-0.0449,-0.0424,-0.0423,-0.0423,-0.0398,-0.0431,-0.0432,-0.0432,-0.0433,0,0,0.0337,0.0398,0.0428,0.0561,0.063,0.0761,0.0846,0.0981,0.1076,0.1185,0.1201,0.1155,0.0768,0.0457,0.0081,-0.0171,-0.0232,-0.022,-0.0183,-0.0109,-0.0105,-0.0376,-0.0333,0,0,0,0,0]}],[{"header":{"parameterUnit":"m.s-1","parameterCategory":2,"la1":30.2991,"la2":30.254,"lo1":-89.0895,"lo2":-89.0444,"dy":0.0017,"dx":0.0017,"nx":28,"ny":28,"refTime":"2025-02-10T09:00:00:Z","depth":"4","parameterNumber":2,"parameterNumberName":"U-component_of_CURRENTS"},"data":[0,0,0,0,0,0,0,0,0,0,0,0,0,0,0,0,0,0,0,0,0,0,0,0,0,0,0,0,0,0,0,0,0,0,0,0,0,0,0,0,0,0,0,0,0,0,0,0,0,0,0,0,0,0,0,0,0,0,0.1188,0.1188,0,0.1214,0.1214,0.1214,0.1252,0.1253,0.1254,0.1255,0.1296,0.1296,0.1296,0,0,0,0,0,0,0,0,0,0,0,0,0,0.1107,0.1108,0.1188,0.1188,0.1189,0.1214,0.1214,0.1214,0.1252,0.1253,0.1254,0.1255,0.1296,0.1296,0.1296,0,0,0,0,0,0,0,0,0,0,0,0,0,0.1135,0.1109,0.1188,0.1213,0.1216,0.1214,0.1214,0.1214,0.1251,0.1253,0.1254,0.1256,0.1296,0.1296,0.1296,0.1269,0,0,0.1297,0.1297,0,0,0,0,0,0,0,0,0.1134,0.1138,0.1209,0.1212,0.1215,0.1234,0.1201,0.1234,0.1251,0.1234,0.1255,0.1256,0.1278,0.128,0.1276,0.1271,0.1273,0.1297,0.1297,0.1297,0.1297,0,0,0,0,0,0,0,0.1132,0.1137,0.1195,0.121,0.1213,0.1202,0.1208,0.1207,0.1245,0.1236,0.1239,0.1248,0.1279,0.1276,0.1277,0.1273,0.1297,0.1297,0.1297,0.1298,0.1343,0.1344,0,0,0,0,0,0,0.1138,0.1135,0.1194,0.1196,0.1181,0.1203,0.1209,0.1224,0.1245,0.125,0.1246,0.1249,0.1274,0.1277,0.1279,0.1335,0.1297,0.1298,0.1298,0.1342,0.1343,0.1344,0,0,0,0,0,0,0.1136,0.1143,0.1193,0.1168,0.1175,0.1204,0.1219,0.1223,0.1247,0.1253,0.1259,0.1269,0.1276,0.1279,0.1307,0.1333,0.1298,0.1298,0.134,0.1342,0.1343,0.139,0,0,0,0,0,0,0.1133,0.1142,0.1162,0.1169,0.1176,0.1211,0.1218,0.1223,0.125,0.1255,0.1274,0.1278,0.1277,0.1307,0.1307,0.1333,0.1298,0.1339,0.1341,0.1343,0.1387,0.1393,0.1398,0,0,0,0,0,0.113,0.115,0.1163,0.117,0.12,0.1212,0.1214,0.1236,0.125,0.1262,0.1282,0.1279,0.132,0.1308,0.1308,0.1335,0.1338,0.1341,0.1343,0.1385,0.1392,0.1398,0,0,0,0,0,0,0.1124,0.1156,0.117,0.12,0.1214,0.122,0.1239,0.1247,0.1269,0.1285,0.1287,0.1292,0.1325,0.1322,0.1309,0.1354,0.133,0.1332,0.1362,0.1368,0.1374,0.1375,0.1299,0,0,0,0,0,0.1132,0.1161,0.1179,0.1205,0.1216,0.1229,0.1241,0.1255,0.1272,0.1284,0.1297,0.1315,0.1328,0.1344,0.135,0.1372,0.1389,0.1391,0.1396,0.1401,0.1403,0.1452,0.1463,0.1351,0.1351,0.1351,0,0,0.1136,0.1159,0.1175,0.1206,0.1221,0.1237,0.124,0.1267,0.1286,0.1284,0.1322,0.1331,0.1337,0.1366,0.1381,0.1372,0.1445,0.1404,0.1408,0.1407,0.1456,0.1467,0.1477,0.1353,0.1353,0.1352,0,0,0.1149,0.1181,0.1206,0.122,0.1252,0.1259,0.1273,0.1293,0.1314,0.1342,0.135,0.1377,0.1396,0.1408,0.1415,0.1452,0.1468,0.146,0.1494,0.1542,0.1552,0.1561,0.1612,0.1625,0.1468,0.1468,0.1468,0,0.1153,0.1188,0.1212,0.1234,0.1251,0.1273,0.1292,0.1309,0.1338,0.136,0.1366,0.1409,0.1414,0.145,0.1467,0.1464,0.1499,0.1469,0.155,0.1559,0.1567,0.1617,0.1631,0.1471,0.147,0.147,0.147,0,0.1174,0.1208,0.1224,0.1262,0.128,0.1303,0.1328,0.1357,0.1385,0.1403,0.1453,0.1462,0.1492,0.1499,0.1495,0.1555,0.1564,0.1549,0.1535,0.1581,0.1631,0.1645,0.1474,0.1473,0.1473,0.1472,0,0,0.1161,0.1227,0.1235,0.1261,0.13,0.1315,0.1355,0.1394,0.1435,0.1464,0.1516,0.1536,0.1554,0.1562,0.1567,0.1605,0.1694,0.1609,0.1611,0.1662,0.182,0.1726,0.1731,0.1703,0.1706,0.1707,0.1837,0,0.1171,0.1223,0.125,0.1294,0.1319,0.1352,0.1388,0.1429,0.1469,0.1526,0.1551,0.1601,0.1576,0.1609,0.1641,0.1685,0.1729,0.1661,0.1765,0.1768,0.168,0.1743,0.1714,0.1847,0.185,0.1852,0.1854,0,0.1174,0.1214,0.1262,0.1325,0.1341,0.1372,0.1441,0.1477,0.1551,0.1589,0.1638,0.1665,0.1729,0.1701,0.1798,0.1763,0.1797,0.182,0.1826,0.1727,0.1697,0.1787,0.1878,0.1876,0.1874,0.1873,0.1871,0,0.1149,0.1217,0.1263,0.1282,0.1353,0.1392,0.1436,0.1504,0.155,0.1644,0.1695,0.1758,0.1822,0.1861,0.191,0.1875,0.2019,0.1974,0.1918,0.1913,0.1937,0.1926,0.2042,0.2042,0.2042,0.2041,0.2041,0,0.1135,0.1173,0.1266,0.1288,0.1347,0.1401,0.1469,0.1523,0.1614,0.1673,0.1736,0.1792,0.1871,0.195,0.1962,0.1992,0.2068,0.1937,0.1941,0.1955,0.1945,0.1948,0.1935,0.2046,0.2045,0.2044,0.2043,0,0.1091,0.1153,0.1208,0.1303,0.1337,0.1381,0.1483,0.153,0.163,0.1714,0.1755,0.1869,0.1968,0.2031,0.2126,0.2067,0.2097,0.2087,0.2129,0.2131,0.1945,0.1933,0.2029,0.2027,0.2025,0.2023,0.2022,0,0.1069,0.1098,0.1207,0.1243,0.1291,0.1368,0.1415,0.1523,0.1571,0.1737,0.177,0.192,0.1977,0.2041,0.2108,0.215,0.2114,0.2121,0.1988,0.195,0.1945,0.1936,0.1927,0.2019,0.2019,0.2018,0.2018,0,0.1022,0.1074,0.1122,0.1199,0.1261,0.1314,0.1397,0.1428,0.1555,0.1664,0.1748,0.1808,0.1926,0.1985,0.2052,0.206,0.2105,0.21,0.2102,0.1977,0.1939,0.1934,0.1928,0.2011,0.2012,0.2013,0.2013,0,0.0986,0.1007,0.1081,0.1138,0.1208,0.1243,0.1294,0.1362,0.1429,0.1604,0.1636,0.1783,0.1911,0.1944,0.1996,0.2014,0.1962,0.1876,0.1888,0.1896,0.1789,0.1718,0.1741,0,0,0,0,0,0.0941,0.0962,0.1012,0.1069,0.1134,0.1177,0.1271,0.1325,0.1452,0.1473,0.1549,0.1641,0.173,0.1811,0.1801,0.1937,0.197,0.1918,0.1876,0.1975,0.1983,0.1867,0,0,0,0,0,0,0.0912,0.0958,0.0985,0.0999,0.1024,0.1085,0.1141,0.1229,0.1243,0.138,0.1438,0.1547,0.1657,0.1723,0.1771,0.1796,0.1738,0.2013,0.2009,0.1971,0.1978,0.1984,0.1868,0,0,0,0,0]},{"header":{"parameterUnit":"m.s-1","parameterCategory":2,"la1":30.2991,"la2":30.254,"lo1":-89.0895,"lo2":-89.0444,"dy":0.0017,"dx":0.0017,"nx":28,"ny":28,"refTime":"2025-02-10T09:00:00:Z","depth":"4","parameterNumber":3,"parameterNumberName":"V-component_of_CURRENTS"},"data":[0,0,0,0,0,0,0,0,0,0,0,0,0,0,0,0,0,0,0,0,0,0,0,0,0,0,0,0,0,0,0,0,0,0,0,0,0,0,0,0,0,0,0,0,0,0,0,0,0,0,0,0,0,0,0,0,0,0,-0.0193,-0.0193,0,-0.0268,-0.0269,-0.027,-0.0314,-0.0314,-0.0314,-0.0314,-0.0404,-0.0406,-0.0408,0,0,0,0,0,0,0,0,0,0,0,0,0,-0.0145,-0.0145,-0.0192,-0.0193,-0.0194,-0.0268,-0.0269,-0.0271,-0.0314,-0.0314,-0.0314,-0.0314,-0.0403,-0.0406,-0.0408,0,0,0,0,0,0,0,0,0,0,0,0,0,-0.0189,-0.0145,-0.0192,-0.0224,-0.0227,-0.0268,-0.027,-0.0271,-0.0314,-0.0314,-0.0314,-0.0314,-0.0402,-0.0405,-0.0409,-0.0429,0,0,-0.0419,-0.0421,0,0,0,0,0,0,0,0,-0.0186,-0.019,-0.0218,-0.0222,-0.0226,-0.0281,-0.0286,-0.0324,-0.0314,-0.0282,-0.0314,-0.0314,-0.0363,-0.037,-0.0385,-0.0433,-0.0437,-0.042,-0.0422,-0.0423,-0.0424,0,0,0,0,0,0,0,-0.0183,-0.0188,-0.0224,-0.0219,-0.0224,-0.0255,-0.0261,-0.0293,-0.0322,-0.0285,-0.0288,-0.0295,-0.0365,-0.0382,-0.0388,-0.0438,-0.042,-0.0423,-0.0425,-0.0426,-0.0511,-0.0511,0,0,0,0,0,0,-0.0168,-0.0184,-0.0221,-0.0226,-0.0204,-0.0255,-0.0262,-0.0264,-0.0322,-0.033,-0.0294,-0.0296,-0.0376,-0.0383,-0.0391,-0.0416,-0.0423,-0.0427,-0.0429,-0.0511,-0.0511,-0.0511,0,0,0,0,0,0,-0.0167,-0.017,-0.0218,-0.0206,-0.0215,-0.0255,-0.0258,-0.0265,-0.0286,-0.0329,-0.0338,-0.0307,-0.0376,-0.0386,-0.0422,-0.042,-0.0428,-0.0431,-0.0511,-0.0511,-0.0511,-0.0468,0,0,0,0,0,0,-0.0165,-0.0169,-0.0169,-0.0205,-0.0215,-0.0241,-0.0258,-0.0267,-0.0289,-0.0292,-0.0342,-0.0351,-0.0377,-0.0416,-0.0425,-0.0425,-0.0434,-0.051,-0.0511,-0.0511,-0.0469,-0.0466,-0.0464,0,0,0,0,0,-0.0163,-0.0159,-0.0168,-0.0173,-0.0211,-0.0241,-0.0249,-0.0279,-0.0289,-0.0298,-0.0331,-0.0349,-0.0424,-0.0419,-0.043,-0.043,-0.051,-0.0511,-0.0511,-0.047,-0.0467,-0.0464,0,0,0,0,0,0,-0.0139,-0.0164,-0.0175,-0.0179,-0.0207,-0.0248,-0.0258,-0.0279,-0.0313,-0.0316,-0.0355,-0.0366,-0.0396,-0.0421,-0.0415,-0.0456,-0.0469,-0.0471,-0.0434,-0.0431,-0.0429,-0.0407,-0.0437,0,0,0,0,0,-0.0132,-0.0135,-0.0167,-0.0171,-0.0182,-0.022,-0.0237,-0.0258,-0.0291,-0.0306,-0.0343,-0.0378,-0.0405,-0.0424,-0.0455,-0.0481,-0.049,-0.0487,-0.0485,-0.0483,-0.0472,-0.048,-0.0477,-0.0512,-0.0512,-0.0512,0,0,-0.0125,-0.0138,-0.0141,-0.0167,-0.019,-0.0204,-0.0231,-0.0253,-0.0266,-0.031,-0.0341,-0.0373,-0.0411,-0.0437,-0.0452,-0.0458,-0.048,-0.0483,-0.0481,-0.0471,-0.048,-0.0477,-0.0474,-0.0512,-0.0512,-0.0512,0,0,-0.0109,-0.0122,-0.012,-0.014,-0.017,-0.0193,-0.0197,-0.024,-0.026,-0.0294,-0.0323,-0.0352,-0.0407,-0.0427,-0.0443,-0.0448,-0.0467,-0.0462,-0.0432,-0.0441,-0.0437,-0.0434,-0.0445,-0.0443,-0.046,-0.046,-0.046,0,-0.0099,-0.0099,-0.0125,-0.0131,-0.0141,-0.0184,-0.0186,-0.0214,-0.0265,-0.0272,-0.0298,-0.036,-0.0398,-0.0412,-0.0417,-0.0441,-0.0449,-0.0438,-0.0435,-0.0433,-0.0431,-0.0442,-0.0441,-0.0458,-0.0458,-0.0458,-0.0458,0,-0.0085,-0.0086,-0.0087,-0.0104,-0.012,-0.013,-0.0166,-0.0184,-0.0214,-0.0241,-0.027,-0.0323,-0.0353,-0.0374,-0.0401,-0.0403,-0.0415,-0.043,-0.0437,-0.0424,-0.0438,-0.0437,-0.0455,-0.0455,-0.0456,-0.0457,0,0,-0.0056,-0.0071,-0.0072,-0.0067,-0.0103,-0.011,-0.0126,-0.0145,-0.0138,-0.0201,-0.0196,-0.0262,-0.0287,-0.0307,-0.0344,-0.0359,-0.0362,-0.0386,-0.0387,-0.0386,-0.0379,-0.0373,-0.0372,-0.0374,-0.0374,-0.0374,-0.0395,0,-0.0036,-0.0025,-0.0044,-0.0036,-0.0032,-0.0064,-0.0069,-0.0092,-0.0117,-0.0126,-0.018,-0.0198,-0.0262,-0.027,-0.0297,-0.034,-0.0358,-0.0355,-0.04,-0.0401,-0.0389,-0.037,-0.0372,-0.0395,-0.0395,-0.0395,-0.0395,0,-0.0017,-0.0009,0.0008,0.0017,0.0017,0.0015,0.0022,0.0011,-0.0012,-0.0032,-0.0063,-0.0105,-0.0144,-0.0196,-0.0267,-0.026,-0.0315,-0.0355,-0.0357,-0.0362,-0.0394,-0.0412,-0.0394,-0.0394,-0.0394,-0.0394,-0.0394,0,0.0023,0.0029,0.0052,0.005,0.0047,0.0059,0.0059,0.0045,0.0058,0.0036,0.0044,-0.0019,-0.0035,-0.0116,-0.022,-0.0237,-0.0289,-0.0323,-0.0371,-0.0371,-0.039,-0.0392,-0.0365,-0.0365,-0.0365,-0.0365,-0.0365,0,0.0051,0.0069,0.0078,0.0089,0.0129,0.0109,0.0149,0.014,0.0148,0.0177,0.01,0.0111,-0.0014,-0.0069,-0.0177,-0.0267,-0.026,-0.0354,-0.037,-0.0373,-0.0374,-0.039,-0.0392,-0.0366,-0.0365,-0.0365,-0.0365,0,0.0082,0.0084,0.0115,0.0133,0.0147,0.0175,0.021,0.0243,0.0237,0.0277,0.0275,0.0222,0.0146,0.0018,-0.0099,-0.0194,-0.0291,-0.0328,-0.0311,-0.0328,-0.0381,-0.0382,-0.0376,-0.0376,-0.0376,-0.0376,-0.0375,0,0.0097,0.0116,0.0155,0.0184,0.0195,0.0237,0.0273,0.0285,0.0322,0.0344,0.0372,0.0322,0.0261,0.0116,-0.004,-0.0229,-0.0269,-0.0322,-0.0367,-0.0363,-0.038,-0.038,-0.0381,-0.0375,-0.0375,-0.0375,-0.0375,0,0.0127,0.014,0.0168,0.023,0.0277,0.0331,0.0382,0.0424,0.0447,0.0446,0.0469,0.0381,0.0303,0.0148,0.0005,-0.0142,-0.0289,-0.0322,-0.0324,-0.0366,-0.0362,-0.0379,-0.038,-0.0375,-0.0375,-0.0375,-0.0375,0,0.0151,0.0178,0.0217,0.0274,0.0338,0.041,0.0432,0.0483,0.0522,0.0542,0.0553,0.045,0.039,0.0194,0.006,-0.0079,-0.0132,-0.0193,-0.0203,-0.0205,-0.0165,-0.0135,-0.0077,0,0,0,0,0,0.0169,0.0204,0.0259,0.0326,0.0392,0.0429,0.0501,0.0519,0.0551,0.0584,0.0572,0.0493,0.0312,0.0234,0.01,0.0032,-0.0175,-0.0134,-0.0255,-0.0372,-0.0373,-0.0355,0,0,0,0,0,0,0.0183,0.0232,0.0262,0.0359,0.0412,0.0491,0.0541,0.0564,0.0578,0.0589,0.0501,0.0449,0.0273,0.0393,0.0096,0.0053,-0.0045,-0.0223,-0.0227,-0.0372,-0.0372,-0.0373,-0.0355,0,0,0,0,0]}]]